TimeCDT,TemperatureF,Dew PointF,Humidity,Sea Level PressureIn,VisibilityMPH,Wind Direction,Wind SpeedMPH,Gust SpeedMPH,PrecipitationIn,Events,Conditions,WindDirDegrees,DateUTC
12:53 AM,37.9,27.0,65,30.01,10.0,East,3.5,-,N/A,,Clear,80,2013-03-19 05:53:00
1:53 AM,35.1,26.1,70,30.00,10.0,Calm,Calm,-,N/A,,Clear,0,2013-03-19 06:53:00
2:53 AM,30.9,26.1,82,30.03,10.0,Calm,Calm,-,N/A,,Clear,0,2013-03-19 07:53:00
3:53 AM,35.1,27.0,72,30.03,10.0,ENE,5.8,-,N/A,,Clear,60,2013-03-19 08:53:00
4:53 AM,35.1,26.1,70,30.04,10.0,NE,9.2,-,N/A,,Clear,40,2013-03-19 09:53:00
5:53 AM,37.0,25.0,62,30.07,10.0,NE,9.2,-,N/A,,Clear,50,2013-03-19 10:53:00
6:53 AM,37.0,25.0,62,30.10,10.0,ENE,11.5,-,N/A,,Clear,60,2013-03-19 11:53:00
7:53 AM,37.9,25.0,60,30.12,10.0,ENE,12.7,-,N/A,,Clear,70,2013-03-19 12:53:00
8:53 AM,43.0,24.1,47,30.14,10.0,East,12.7,-,N/A,,Clear,90,2013-03-19 13:53:00
9:53 AM,45.0,23.0,42,30.16,10.0,East,16.1,-,N/A,,Clear,90,2013-03-19 14:53:00
10:53 AM,50.0,23.0,35,30.17,10.0,East,13.8,-,N/A,,Clear,100,2013-03-19 15:53:00
11:53 AM,54.0,23.0,30,30.15,10.0,East,10.4,-,N/A,,Clear,100,2013-03-19 16:53:00
12:53 PM,57.0,24.1,28,30.14,10.0,SE,8.1,-,N/A,,Clear,130,2013-03-19 17:53:00
1:53 PM,59.0,25.0,27,30.11,10.0,SSE,11.5,17.3,N/A,,Clear,160,2013-03-19 18:53:00
2:53 PM,60.1,27.0,28,30.11,10.0,SSW,4.6,-,N/A,,Clear,210,2013-03-19 19:53:00
3:53 PM,61.0,28.9,30,30.09,10.0,South,6.9,-,N/A,,Clear,180,2013-03-19 20:53:00
4:53 PM,61.0,28.9,30,30.09,10.0,South,4.6,-,N/A,,Clear,190,2013-03-19 21:53:00
5:53 PM,60.1,28.9,31,30.09,10.0,Calm,Calm,-,N/A,,Clear,0,2013-03-19 22:53:00
6:53 PM,57.9,27.0,31,30.11,10.0,NNE,9.2,-,N/A,,Clear,20,2013-03-19 23:53:00
7:53 PM,53.1,25.0,34,30.14,10.0,NE,9.2,-,N/A,,Clear,40,2013-03-20 00:53:00
8:53 PM,51.1,23.0,33,30.17,10.0,NE,15.0,23.0,N/A,,Clear,50,2013-03-20 01:53:00
9:53 PM,46.0,26.1,46,30.22,10.0,ENE,13.8,-,N/A,,Clear,70,2013-03-20 02:53:00
10:53 PM,44.1,26.1,49,30.24,10.0,East,10.4,-,N/A,,Clear,80,2013-03-20 03:53:00
11:53 PM,42.1,27.0,55,30.27,10.0,ENE,5.8,-,N/A,,Clear,60,2013-03-20 04:53:00